Regional Weather Roundup
Issued by NWS

Home | Current Version | Previous Version | Text Only | Print | Product List | Glossary Off
Versions: 1 2 3 4 5 6 7 8 9 10 11 12 13 14 15 16 17 18 19 20 21 22 23 24 25 26 27 28 29 30 31 32 33 34 35 36 37 38 39 40 41 42 43 44 45 46 47 48 49 50

884
ASUS43 KLSX 230107
RWRMO

WEATHER SUMMARY FOR MISSOURI
NATIONAL WEATHER SERVICE SPRINGFIELD MO
800 PM CDT SUN OCT 22 2017

NOTE: "FAIR" INDICATES FEW OR NO CLOUDS BELOW 12,000 FEET WITH NO
       SIGNIFICANT WEATHER AND/OR OBSTRUCTIONS TO VISIBILITY.
       CURRENT SKY AND/OR WEATHER CONDITIONS ARE NOT AVAILABLE FOR
       CHILLICOTHE AND FARMINGTON.

MOZ001>031-035>038-043-044-053-054-230200-
...NORTHERN AND WESTERN MISSOURI...

CITY           SKY/WX    TMP DP  RH WIND       PRES   REMARKS
KANSAS CTY INT PTCLDY    54  40  59 S7        30.09S
KANSAS C DTWN  CLEAR     58  41  53 CALM      30.09R
LEE`S SUMMIT   CLEAR     54  42  64 S3        30.10S
ST JOSEPH      CLEAR     50  45  83 S3        30.07S
CHILLICOTHE      N/A     51  49  92 CALM      30.10S
KIRKSVILLE     CLOUDY    50  50 100 CALM      30.09S

$$
MOZ066>068-077>081-088>096-101>105-230200-
...SOUTHWEST MISSOURI...

CITY           SKY/WX    TMP DP  RH WIND       PRES   REMARKS
SPRINGFIELD    CLOUDY    51  51 100 CALM      30.10S
JOPLIN         CLEAR     50  49  96 CALM      30.12S
BRANSON        CLOUDY    50  48  93 W6        30.13R

$$
MOZ032>034-039>042-045>050-055>058-069>072-230200-
...CENTRAL MISSOURI...

CITY           SKY/WX    TMP DP  RH WIND       PRES   REMARKS
COLUMBIA       CLOUDY    53  51  93 W8        30.08S
JEFFERSON CITY CLOUDY    53  50  89 CALM      30.08S
ROLLA          LGT RAIN  50  50 100 N8        30.07S
SEDALIA        CLOUDY    54  52  93 W5        30.12R
WHITEMAN AFB   CLOUDY    51  50  94 CALM      30.07R
WARRENSBURG    PTCLDY    50  45  81 CALM      30.10S
OSAGE BEACH    CLOUDY    51  50  96 W3        30.10R

$$
MOZ051-052-059>065-230200-
...EAST CENTRAL MISSOURI...

CITY           SKY/WX    TMP DP  RH WIND       PRES   REMARKS
ST LOUIS INTL  LGT RAIN  52  51  97 N12       30.05S FOG
SPIRIT OF STL  LGT RAIN  54  53  97 NW8       30.05S
ST CHARLES     LGT RAIN  53  51  93 N7        30.06R

$$
MOZ072>076-082>087-097>100-106>115-230200-
...SOUTH CENTRAL AND SOUTHEAST MISSOURI...

CITY           SKY/WX    TMP DP  RH WIND       PRES   REMARKS
CAPE GIRARDEAU LGT RAIN  56  53  90 N12       29.96S
FARMINGTON     LGT RAIN  52  51  97 N8        30.04R
POPLAR BLUFF   LGT RAIN  55  53  93 N13       30.00R FOG
WEST PLAINS    CLOUDY    52  50  93 NW6       30.07R

$$



USA.gov is the U.S. government's official web portal to all federal, state and local government web resources and services.